Regional Weather Roundup
Issued by NWS

Home | Current Version | Previous Version | Graphics & Text | Print | Product List | Glossary On
Versions: 1 2 3 4 5 6 7 8 9 10 11 12 13 14 15 16 17 18 19 20 21 22 23 24 25 26 27 28 29 30 31 32 33 34 35 36 37 38 39 40 41 42 43 44 45 46 47 48 49 50
000
ASUS43 KMKX 010600
RWRWI

WISCONSIN REGIONAL WEATHER ROUNDUP
NATIONAL WEATHER SERVICE MILWAUKEE/SULLIVAN WI
100 AM CDT SAT OCT 01 2016

NOTE: "FAIR" INDICATES FEW OR NO CLOUDS BELOW 12,000 FEET WITH NO
SIGNIFICANT WEATHER AND/OR OBSTRUCTIONS TO VISIBILITY.

WIZ001-002-006>008-014>016-023>028-010700-
NORTHWEST WISCONSIN

CITY           SKY/WX    TMP DP  RH WIND       PRES   REMARKS
SUPERIOR ARPT  CLOUDY    52  51  97 E5        30.27F
ASHLAND        FOG       53  53 100 VRB6      30.27S VSB 1/4
6HR MIN TEMP:  52; 6HR MAX TEMP:  53;

HAYWARD        CLEAR     49  48  97 N3        30.24F
6HR MIN TEMP:  47; 6HR MAX TEMP:  56;

SIREN          CLEAR     51  50  96 CALM      30.25S
CUMBERLAND     CLEAR     52  50  93 NE6       30.23F
RICE LAKE      CLEAR     53  51  92 NW3       30.24S
CHETEK         NOT AVBL
LADYSMITH      CLEAR     55  52  90 NE6       30.24S
EAU CLAIRE     NOT AVBL
MENOMONIE      CLEAR     56  53  88 N6        30.20S
NEW RICHMOND   CLEAR     53  52  97 CALM      30.22S
OSCEOLA        CLEAR     55  55 100 NE5       30.24F
$$

WIZ003>005-009-010-017-018-010700-
NORTH CENTRAL WISCONSIN

CITY           SKY/WX    TMP DP  RH WIND       PRES   REMARKS
MANITOWISH WTR NOT AVBL
ARBOR VITAE    CLEAR     56  53  87 E5        30.24F
WOODRUFF       CLEAR     56  53  87 E5        30.24F
RHINELANDER    CLEAR     53  50  89 E7        30.23F
6HR MIN TEMP:  53; 6HR MAX TEMP:  63;

EAGLE RIVER    PTCLDY    55  47  74 E7        30.24S
LAND O LAKES   PTCLDY    49  47  95 CALM      30.27S
PHILLIPS       CLEAR     51  50  99 N5        30.23S
TOMAHAWK       PTCLDY    53  49  85 NE3       30.23F
MEDFORD        PTCLDY    52  51  94 NE5       30.20F
MERRILL        MOCLDY    53  51  92 NE5       30.22S
$$

WIZ029-030-035-036-043>047-010700-
CENTRAL WISCONSIN

CITY           SKY/WX    TMP DP  RH WIND       PRES   REMARKS
WAUSAU         CLOUDY    57  50  77 NE6       30.18F
6HR MIN TEMP:  57; 6HR MAX TEMP:  64;

MOSINEE        CLOUDY    55  52  88 NE9       30.19F
MARSHFIELD     CLOUDY    60  51  72 E7        30.17F
6HR MIN TEMP:  60; 6HR MAX TEMP:  64;

STEVENS POINT  CLOUDY    58  50  77 NE8       30.18S
WAUPACA        CLOUDY    60  59  97 NE5       30.16F
WAUTOMA        CLOUDY    58  57  97 NE7       30.15F
6HR MIN TEMP:  57; 6HR MAX TEMP:  59; 6HR PCP: TRACE;

WISC RAPIDS    CLOUDY    60  52  74 NE8       30.17F
6HR MIN TEMP:  60; 6HR MAX TEMP:  62;

CAMP DOUGLAS   CLOUDY    57  55  94 N5        30.15F
$$

WIZ011>013-019>022-031-037>040-048>050-010700-
NORTHEAST WISCONSIN

CITY           SKY/WX    TMP DP  RH WIND       PRES   REMARKS
ANTIGO         CLOUDY    55  51  86 NE6       30.21F
SHAWANO        CLOUDY    61  55  79 NE9       30.18F
OCONTO         NOT AVBL
STURGEON BAY   CLOUDY    61  55  81 E8        30.18F
6HR MIN TEMP:  61; 6HR MAX TEMP:  63; 6HR PCP: TRACE;

GREEN BAY      CLOUDY    61  58  90 E9        30.15F
6HR MIN TEMP:  61; 6HR MAX TEMP:  63; 6HR PCP:  0.02;

MANITOWOC      LGT RAIN  61  57  88 MISG      30.14F
APPLETON       CLOUDY    59  59 100 NE10      30.14F
CLINTONVILLE   CLOUDY    61  52  72 NE7       30.16F
OSHKOSH        LGT RAIN  61  59  93 NE8       30.13F
6HR MIN TEMP:  59; 6HR MAX TEMP:  61; 6HR PCP:  0.09;

$$

WIZ032>034-041-042-053>061-010700-
SOUTHWEST WISCONSIN

CITY           SKY/WX    TMP DP  RH WIND       PRES   REMARKS
LA CROSSE      CLOUDY    63  56  78 E6        30.15F
6HR MIN TEMP:  63; 6HR MAX TEMP:  65;

SPARTA         CLOUDY    56  56 100 CALM      30.17F FOG
VIROQUA        CLOUDY    57  56  97 NE5       30.16S
BOSCOBEL       LGT RAIN  60  58  92 CALM      30.13F FOG
6HR MIN TEMP:  59; 6HR MAX TEMP:  62; 6HR PCP:  0.02;

PRAIRIE DU CHI CLOUDY    60  56  86 N3        30.13S
PLATTEVILLE    CLOUDY    59  59 100 N5        30.12F
$$

WIZ056-057-062-063-064-067-068-010700-
SOUTH CENTRAL WISCONSIN

CITY           SKY/WX    TMP DP  RH WIND       PRES   REMARKS
REEDSBURG      NOT AVBL
BARABOO/DELLS  DRIZZLE   57  56  95 NE6       30.13F
LONE ROCK      LGT RAIN  60  57  89 N8        30.13S FOG
MINERAL POINT  CLOUDY    59  59 100 N5        30.12S
MADISON        CLOUDY    59  58  96 NE6       30.10F
6HR MIN TEMP:  59; 6HR MAX TEMP:  60; 6HR PCP:  0.09;

MIDDLETON      CLOUDY    60  60 100 N8        30.11F
WATERTOWN      LGT RAIN  59  59 100 N7        30.10S
MONROE         RAIN      57  57 100 N9        30.10S
JANESVILLE     CLOUDY    61  59  94 N6        30.08S
$$

WIZ051-052-058>065-066-070>072-010700-
SOUTHEAST WISCONSIN

CITY           SKY/WX    TMP DP  RH WIND       PRES   REMARKS
MILWAUKEE      LGT RAIN  62  60  93 NE9       30.08F FOG
6HR MIN TEMP:  61; 6HR MAX TEMP:  62; 6HR PCP:  0.38;

WAUKESHA       DRIZZLE   57  55  94 NE7       30.10F
MILWAUKEE/TIMM RAIN      59  55  88 NE9       30.09F
RACINE         CLOUDY    62  59  90 E13       30.08F
6HR MIN TEMP:  61; 6HR MAX TEMP:  63; 6HR PCP:  0.08;

BURLINGTON     RAIN      58  58  98 N3        30.08S
KENOSHA        CLOUDY    62  59  90 E9        30.07F
6HR MIN TEMP:  61; 6HR MAX TEMP:  62; 6HR PCP:  0.03;

FOND DU LAC    LGT RAIN  61  59  93 NE8       30.12F
6HR MIN TEMP:  60; 6HR MAX TEMP:  61; 6HR PCP:  0.09;

SHEBOYGAN      RAIN      60  57  89 NE16      30.12F
6HR MIN TEMP:  60; 6HR MAX TEMP:  61; 6HR PCP:  0.33;

WEST BEND      RAIN      68  68 100 NE12      30.10F
JUNEAU         CLOUDY    58  57  97 N3        30.12F
$$

LSZ147-162-010700-
LAKE SUPERIOR

STATION/POSITION TIME  TEMP    WIND        PRES    WAVE
                       AIR SEA DIR/SP/G            HT/PER
                 (UTC) (F)     (DEG/KT/KT) (MB)    (FT/S)
W MID LAKE BUOY  0450   56 55   60/  8/ 10 1025.1F   2/ 4
DEVILS ISLAND    0500   53      70/  7/  9 1025.5F
SAXON HARBOR     0500   55     200/  3/  3 1024.4F
$$

LMZ867-665-643>646-010700-
LAKE MICHIGAN

STATION/POSITION TIME  TEMP    WIND        PRES    WAVE
                       AIR SEA DIR/SP/G            HT/PER
                 (UTC) (F)     (DEG/KT/KT) (MB)    (FT/S)
CHAMBERS ISLAND  0500   63      50/  9/ 14 1022.4F
S GREEN BAY BUOY 0500   63 62   90/ 16/ 19 1021.2
N MID LAKE BUOY  0450   63 65  110/ 19/ 23 1022.1F   5/ 5
NORTHPORT PIER   0500   63      90/ 14/ 16 1022.7
SISTER BAY       0508   63     100/  8/ 11   N/A
KEWAUNEE LAKESHO 0500   61      80/ 13/ 16 1020.9F
SHEBOYGAN LAKESH 0500   61      60/ 20/ 21 1019.7F
PORT WASHINGTON  0500   60      50/ 14/ 18 1020.0F
ATWATER BUOY     0500   58 55   50/ 10/ 14 1018.7F
MILWAUKEE LAKESH 0510   58      40/ 10/ 11   N/A
S MID LAKE BUOY  0450   63 67   90/ 17/ 21 1017.6F   4/ 7
KENOSHA   LAKESH 0500   63      80/ 16/ 19 1017.9F
$$

TC  - TEMPERATURE IN CELSIUS
VSB - VISIBILITY IN STATUTE MILES
WCI - WIND CHILL INDEX
HX  - HEAT INDEX





USA.gov is the U.S. government's official web portal to all federal, state and local government web resources and services.